Location: Barnston
(51.8500°N, 0.4000°E)
Time: 05:16:35
(UTC+00:00)

Cosmos 1812 - Pass Details

Date: 26 September 2023
Orbit: 486 x 489 km, 82.5° (Epoch: 29 November)

Event Time Altitude Azimuth Distance (km) Brightness Sun altitude
Exits shadow 03:36:52 38° 324° (NW) 765 3.4 -20.7°
Drops below altitude 10° 03:39:33 10° 360° (N) 1,670 5.6 -20.4°
Sets 03:41:46 0° 7° (N) 2,575 6.7 -20.1°
